Regional Weather Roundup
Issued by NWS Nashville, TN

Home | Current Version | Previous Version | Text Only | Print | Product List | Glossary On
Versions: 1 2 3 4 5 6 7 8 9 10 11 12 13 14 15 16 17 18 19 20 21 22 23 24 25 26 27 28 29 30 31 32 33 34 35 36 37 38 39 40 41 42 43 44 45 46 47 48 49 50
000
ASUS44 KOHX 170910
RWROHX
MIDDLE TENNESSEE HOURLY WEATHER ROUNDUP
NATIONAL WEATHER SERVICE NASHVILLE TN
300 AM CST TUE JAN 17 2017

NOTE: "FAIR" INDICATES FEW OR NO CLOUDS BELOW 12,000 FEET WITH
NO SIGNIFICANT WEATHER AND/OR OBSTRUCTIONS TO VISIBILITY.

* THESE REPORTS ARE NOT UNDER NWS QUALITY CONTROL AND MAY NOT
  REPORT WEATHER SUCH AS PRECIPITATION AND FOG.


TNZ005>011-023>034-057-059-062>066-078-080-171000
...NORTHERN MIDDLE TENNESSEE...

CITY           SKY/WX    TMP DP  RH WIND       PRES   REMARKS
CLARKSVILLE    LGT RAIN  62  58  86 SW7       29.97S
CROSSVILLE     CLOUDY    58  52  80 S12G25    30.11F
GALLATIN       CLOUDY    61  59  94 CALM      30.05F
DICKSON        CLOUDY    62  59  90 S14       29.99F
LEBANON        CLOUDY    63  57  80 S14       30.01R
NASHVILLE      CLOUDY    65  57  75 S17G24    30.02F
PORTLAND       MOCLDY    59  57  94 S14       30.00S
SMYRNA         LGT RAIN  64  59  83 S9        30.04S
WEST NASHVILLE CLOUDY    63  57  82 S16       30.00F
$$
TNZ056-058-060-061-075>077-079-093>097-171000
...SOUTHERN MIDDLE TENNESSEE...

CITY           SKY/WX    TMP DP  RH WIND       PRES   REMARKS
COLUMBIA       CLOUDY   N/A N/A N/A S10       30.02F
FAYETTEVILLE   CLOUDY    64  59  82 S18       30.10F
LEWISBURG      CLOUDY    63  60  90 S14       30.04
MCMINNVILLE    CLOUDY    64  55  72 S13       30.07S
SHELBYVILLE    MOCLDY    66  61  82 S22       30.07S
TULLAHOMA      CLOUDY    63  55  77 S14       30.09F
WINCHESTER     CLOUDY    64  55  72 S8        30.11F
$$


...KEY TO REMARKS...
VSB - VISIBILITY IN MILES
WCI - WIND CHILL INDEX
HX  - HEAT INDEX




USA.gov is the U.S. government's official web portal to all federal, state and local government web resources and services.